Location: Castillon
(43.0896°N, 0.2156°E)
Time: 15:35:33
(UTC+00:00)

Resurs 01 Rocket - Pass Details

Date: 16 June 2021
Orbit: 635 x 643 km, 97.9° (Epoch: 03 August)

Event Time Altitude Azimuth Distance (km) Brightness Sun altitude
Exits shadow 21:03:40 - 187° (S) 2,309 4.1 -12.1°
Reaches altitude 10° 21:04:25 10° 190° (S) 2,016 3.8 -12.2°
Maximum altitude 21:08:36 42° 262° (W) 910 2.7 -12.7°
Drops below altitude 10° 21:12:48 10° 333° (NNW) 2,030 5.6 -13.2°
Sets 21:15:06 0° 341° (NNW) 2,944 6.5 -13.5°
